Previsão horária em Breclav

Hoje, 1 Agosto, Domingo

Tempo Temperatura Precipitação Vento Pressão Humidade
00:00 +23°C° 0.2 mm 1 m/s 743 mmHg 69%
01:00 +22°C° 0 mm 1 m/s 743 mmHg 73%
02:00 +22°C° 0.2 mm 1 m/s 742 mmHg 77%
03:00 +21°C° 0.2 mm 1 m/s 742 mmHg 80%
04:00 +20°C° 0.2 mm 1 m/s 741 mmHg 84%
05:00 +20°C° 1.3 mm 2 m/s 741 mmHg 85%
06:00 +20°C° 1.3 mm 2 m/s 741 mmHg 87%
07:00 +20°C° 0 mm 2 m/s 740 mmHg 88%
08:00 +21°C° 0.8 mm 3 m/s 740 mmHg 81%
09:00 +23°C° 0.8 mm 4 m/s 740 mmHg 75%
10:00 +24°C° 0.8 mm 6 m/s 739 mmHg 69%
11:00 +25°C° 0.2 mm 5 m/s 739 mmHg 69%
12:00 +25°C° 0.2 mm 5 m/s 739 mmHg 69%
13:00 +23°C° 0 mm 4 m/s 740 mmHg 76%
14:00 +22°C° 0.6 mm 5 m/s 739 mmHg 78%
15:00 +21°C° 0.6 mm 6 m/s 739 mmHg 80%
16:00 +21°C° 0.6 mm 6 m/s 739 mmHg 83%
17:00 +20°C° 0.4 mm 6 m/s 740 mmHg 82%
18:00 +19°C° 0.4 mm 6 m/s 740 mmHg 81%
19:00 +17°C° 0.4 mm 5 m/s 741 mmHg 80%
20:00 +17°C° 0.1 mm 5 m/s 741 mmHg 80%
21:00 +16°C° 0.1 mm 5 m/s 742 mmHg 80%
22:00 +16°C° 0.1 mm 5 m/s 742 mmHg 81%
23:00 +17°C° 0.1 mm 4 m/s 743 mmHg 83%

Amanhã, 2 Agosto, Segunda-feira

Tempo Temperatura Precipitação Vento Pressão Humidade
00:00 +15°C° 0.1 mm 4 m/s 743 mmHg 84%
01:00 +15°C° 0.1 mm 4 m/s 743 mmHg 86%
02:00 +15°C° 0.1 mm 4 m/s 743 mmHg 87%
03:00 +15°C° 0.1 mm 5 m/s 744 mmHg 88%
04:00 +15°C° 0.1 mm 5 m/s 744 mmHg 88%
05:00 +15°C° 0 mm 4 m/s 744 mmHg 87%
06:00 +17°C° 0 mm 4 m/s 745 mmHg 87%
07:00 +17°C° 0 mm 3 m/s 745 mmHg 86%
08:00 +19°C° 0.1 mm 4 m/s 745 mmHg 76%
09:00 +21°C° 0.1 mm 4 m/s 745 mmHg 65%
10:00 +23°C° 0.1 mm 5 m/s 746 mmHg 55%
11:00 +23°C° 0.1 mm 4 m/s 746 mmHg 50%
12:00 +25°C° 0.1 mm 4 m/s 745 mmHg 46%
13:00 +26°C° 0.1 mm 4 m/s 745 mmHg 41%
14:00 +26°C° 0 mm 4 m/s 745 mmHg 43%
15:00 +25°C° 0 mm 3 m/s 745 mmHg 45%
16:00 +25°C° 0 mm 3 m/s 745 mmHg 46%
17:00 +24°C° 0 mm 2 m/s 745 mmHg 51%
18:00 +23°C° 0 mm 2 m/s 746 mmHg 56%
19:00 +22°C° 0 mm 1 m/s 746 mmHg 61%
20:00 +21°C° 0 mm 1 m/s 746 mmHg 65%
21:00 +20°C° 0 mm 1 m/s 746 mmHg 68%
22:00 +18°C° 0 mm 2 m/s 747 mmHg 71%
23:00 +18°C° 0 mm 1 m/s 747 mmHg 75%

Depois de amanhã, 3 Agosto, Terça-feira

Tempo Temperatura Precipitação Vento Pressão Humidade
00:00 +18°C° 0 mm 1 m/s 747 mmHg 79%
01:00 +16°C° 0 mm 1 m/s 747 mmHg 82%
02:00 +15°C° 0 mm 1 m/s 747 mmHg 84%
03:00 +15°C° 0 mm 1 m/s 747 mmHg 85%
04:00 +14°C° 0 mm 0 m/s 747 mmHg 87%
05:00 +15°C° 0 mm 0 m/s 748 mmHg 81%
06:00 +16°C° 0 mm 0 m/s 748 mmHg 75%
07:00 +18°C° 0 mm 0 m/s 748 mmHg 69%
08:00 +20°C° 0 mm 0 m/s 748 mmHg 63%
09:00 +23°C° 0 mm 1 m/s 748 mmHg 57%
10:00 +25°C° 0 mm 1 m/s 748 mmHg 50%
11:00 +26°C° 0 mm 1 m/s 747 mmHg 46%
12:00 +27°C° 0 mm 2 m/s 747 mmHg 42%
13:00 +28°C° 0 mm 2 m/s 746 mmHg 38%
14:00 +28°C° 0 mm 2 m/s 746 mmHg 37%
15:00 +28°C° 0 mm 3 m/s 745 mmHg 37%
16:00 +29°C° 0 mm 3 m/s 745 mmHg 37%
17:00 +27°C° 0.1 mm 2 m/s 744 mmHg 43%
18:00 +26°C° 0.1 mm 2 m/s 744 mmHg 49%
19:00 +24°C° 0.1 mm 2 m/s 744 mmHg 54%
20:00 +21°C° 0.6 mm 2 m/s 745 mmHg 64%
21:00 +20°C° 0.6 mm 2 m/s 745 mmHg 74%
22:00 +19°C° 0.6 mm 2 m/s 745 mmHg 84%
23:00 +18°C° 0.9 mm 2 m/s 746 mmHg 87%

4 Agosto, Quarta-feira

Tempo Temperatura Precipitação Vento Pressão Humidade
00:00 +18°C° 0.9 mm 2 m/s 746 mmHg 90%
01:00 +17°C° 0.9 mm 2 m/s 746 mmHg 94%
02:00 +17°C° 0.9 mm 2 m/s 746 mmHg 94%
03:00 +17°C° 0.9 mm 2 m/s 746 mmHg 94%
04:00 +17°C° 0.9 mm 2 m/s 746 mmHg 94%
05:00 +17°C° 0 mm 2 m/s 746 mmHg 91%
06:00 +19°C° 0 mm 1 m/s 746 mmHg 88%
07:00 +19°C° 0 mm 1 m/s 746 mmHg 85%
08:00 +20°C° 0 mm 2 m/s 746 mmHg 76%
09:00 +21°C° 0 mm 2 m/s 746 mmHg 68%
10:00 +24°C° 0 mm 2 m/s 746 mmHg 59%
11:00 +25°C° 0 mm 2 m/s 746 mmHg 54%
12:00 +26°C° 0 mm 2 m/s 746 mmHg 49%
13:00 +27°C° 0 mm 1 m/s 745 mmHg 44%
14:00 +27°C° 0 mm 1 m/s 745 mmHg 42%
15:00 +28°C° 0 mm 1 m/s 745 mmHg 41%
16:00 +28°C° 0 mm 1 m/s 745 mmHg 39%
17:00 +27°C° 0 mm 1 m/s 745 mmHg 43%
18:00 +25°C° 0 mm 1 m/s 744 mmHg 48%
19:00 +24°C° 0 mm 1 m/s 744 mmHg 53%
20:00 +23°C° 0 mm 1 m/s 744 mmHg 55%
21:00 +22°C° 0 mm 1 m/s 745 mmHg 58%
22:00 +21°C° 0 mm 2 m/s 745 mmHg 61%
23:00 +20°C° 0.2 mm 2 m/s 745 mmHg 68%

5 Agosto, Quinta-feira

Tempo Temperatura Precipitação Vento Pressão Humidade
00:00 +19°C° 0.2 mm 2 m/s 745 mmHg 75%
01:00 +19°C° 0.2 mm 2 m/s 745 mmHg 83%
02:00 +18°C° 0.2 mm 2 m/s 745 mmHg 84%
03:00 +18°C° 0.2 mm 2 m/s 745 mmHg 86%
04:00 +19°C° 0.2 mm 1 m/s 745 mmHg 88%
05:00 +19°C° 0.2 mm 1 m/s 745 mmHg 88%
06:00 +19°C° 0.2 mm 1 m/s 745 mmHg 89%
07:00 +19°C° 0.2 mm 1 m/s 745 mmHg 89%
08:00 +19°C° 0.1 mm 2 m/s 745 mmHg 85%
09:00 +19°C° 0.1 mm 2 m/s 745 mmHg 80%
10:00 +20°C° 0.1 mm 2 m/s 745 mmHg 76%
11:00 +20°C° 0.4 mm 2 m/s 744 mmHg 77%
12:00 +20°C° 0.4 mm 2 m/s 744 mmHg 78%
13:00 +21°C° 0.4 mm 1 m/s 744 mmHg 80%
14:00 +20°C° 0.6 mm 1 m/s 744 mmHg 82%
15:00 +19°C° 0.6 mm 2 m/s 743 mmHg 85%
16:00 +18°C° 0.6 mm 2 m/s 743 mmHg 88%
17:00 +18°C° 0.1 mm 2 m/s 743 mmHg 89%
18:00 +18°C° 0.1 mm 2 m/s 743 mmHg 90%
19:00 +18°C° 0.1 mm 2 m/s 742 mmHg 90%
20:00 +18°C° 0 mm 1 m/s 742 mmHg 91%
21:00 +18°C° 0 mm 1 m/s 742 mmHg 91%
22:00 +16°C° 0 mm 1 m/s 743 mmHg 92%
23:00 +16°C° 0 mm 1 m/s 743 mmHg 92%

6 Agosto, Sexta-feira

Tempo Temperatura Precipitação Vento Pressão Humidade
00:00 +16°C° 0 mm 1 m/s 742 mmHg 92%
01:00 +15°C° 0 mm 1 m/s 742 mmHg 92%
02:00 +15°C° 0 mm 1 m/s 742 mmHg 91%
03:00 +15°C° 0 mm 1 m/s 742 mmHg 90%
04:00 +15°C° 0 mm 1 m/s 742 mmHg 89%
05:00 +16°C° 0 mm 1 m/s 743 mmHg 85%
06:00 +17°C° 0 mm 2 m/s 743 mmHg 81%
07:00 +18°C° 0 mm 2 m/s 743 mmHg 77%
08:00 +20°C° 0 mm 2 m/s 743 mmHg 69%
09:00 +22°C° 0 mm 3 m/s 743 mmHg 61%
10:00 +25°C° 0 mm 3 m/s 743 mmHg 53%
11:00 +26°C° 0 mm 4 m/s 743 mmHg 50%
12:00 +27°C° 0 mm 4 m/s 743 mmHg 47%
13:00 +27°C° 0 mm 4 m/s 743 mmHg 43%
14:00 +27°C° 0 mm 3 m/s 743 mmHg 44%
15:00 +27°C° 0 mm 3 m/s 743 mmHg 44%
16:00 +27°C° 0 mm 2 m/s 743 mmHg 44%
17:00 +26°C° 0 mm 2 m/s 743 mmHg 49%
18:00 +25°C° 0 mm 2 m/s 743 mmHg 54%
19:00 +23°C° 0 mm 1 m/s 743 mmHg 59%
20:00 +22°C° 0 mm 1 m/s 743 mmHg 62%
21:00 +21°C° 0 mm 1 m/s 744 mmHg 65%
22:00 +18°C° 0 mm 0 m/s 744 mmHg 69%
23:00 +20°C° 0 mm 1 m/s 744 mmHg 71%
Mostrar mais

Necessitamos do seu Consentimento

A Meteoprog e os seus Fornecedores de Serviços podem armazenar e aceder a dados pessoais como cookies, identificadores do dispositivo ou outras tecnologias semelhantes existentes no seu dispositivo e processar estes dados para personalizar conteúdos e anúncios, assim como funcionalidades nas redes sociais e análise de tráfego.

  • Armazenar e/ou aceder a informações no seu dispositivo

    Os cookies, identificadores do dispositivo ou outras informações podem ser armazenados ou acedidos no seu dispositivo, para os fins acima indicados.

  • Anúncios e conteúdos personalizados, medição de anúncios e conteúdos, dados sobre o público-alvo e desenvolvimento de produtos

    Os anúncios e os conteúdos podem ser personalizados com base num perfil. Podem ser adicionados dados adicionais para uma maior personalização dos anúncios e dos conteúdos. A eficácia dos anúncios e dos conteúdos pode ser medida. Podem ser obtidas informações sobre o público que visualizou os anúncios e os conteúdos. Estes dados podem ser usados para desenvolver ou melhorar sistemas, softwares ou a experiência do utilizador.

Ao clicar em "Eu concordo”, permitirá o uso de cookies, identificadores do dispositivo e web beacons mencionados ou outras tecnologias semelhantes. As configurações do navegador do seu dispositivo podem ser alteradas.

Para certos fins, podem ser invocados interesses legítimos ao invés de consentimento. Pode ler mais informação sobre este assunto na nossa Política de Privacidade e Cookies.